Phuket, Thailand

10:00 AM ICT on February 10, 2016 (GMT +0700)
Phuket International

Weather History for VTSP - June, 2013

Change the Weather History Date:

Wednesday, June 12, 2013

  Actual Average Record
Temperature  
Mean Temperature 82 °F -  
Max Temperature 88 °F 88 °F 95 °F (2000)
Min Temperature 76 °F 77 °F 73 °F (2014)
Cooling Degree Days 17    
Growing Degree Days 32 (Base 50)    
Moisture  
Dew Point 74 °F    
Average Humidity 77    
Maximum Humidity 89    
Minimum Humidity 63    
Precipitation  
Precipitation 0.04 in 0.37 in - ()
Sea Level Pressure  
Sea Level Pressure 29.72 in    
Wind  
Wind Speed 13 mph ()    
Max Wind Speed 23 mph    
Max Gust Speed 34 mph    
Visibility 4.5 miles    
Events Rain    
Averages and records for this station are not official NWS values.
T = Trace of Precipitation, MM = Missing Value Source: Averaged Metar Reports

Daily Weather History Graph

Daily Weather History Graph

Search for Another Location

Airport or City:

Trip Planner

Search our weather history database for the weather conditions in past years. The results will help you decide how hot, cold, wet, or windy it might be!

Date:

Astronomy

Jun. 12, 2013 Rise Set
Actual Time 6:08 AM ICT 6:44 PM ICT
Civil Twilight 5:46 AM ICT 7:07 PM ICT
Nautical Twilight 5:19 AM ICT 7:33 PM ICT
Astronomical Twilight 4:52 AM ICT 8:01 PM ICT
Moon 8:53 AM ICT (6/12) 9:33 PM ICT (6/12)
Length of Visible Light 13h 21m
Length of Day
12h 35m
Waxing Crescent, 11% of the Moon is Illuminated
Jun 12
Waxing Crescent
Jun 17
First Quarter
Jun 23
Full
Jun 30
Last Quarter
Jul 8
New

Hourly Weather History & Observations

Time (ICT) Temp. Heat Index Dew Point Humidity Pressure Visibility Wind Dir Wind Speed Gust Speed Precip Events Conditions
12:00 AM 80.6 °F 85.4 °F 73.4 °F 79% 29.74 in 1.9 mi West 23.0 mph 34.5 mph N/A Rain Rain
12:30 AM 80.6 °F 86.2 °F 75.2 °F 84% 29.74 in 3.1 mi West 17.3 mph - N/A Rain Rain
1:00 AM 80 °F - 77 °F 89% 29.70 in 5 mi WSW 9.2 mph - - Rain Light Rain
1:00 AM 80.6 °F 86.2 °F 75.2 °F 84% 29.74 in 3.1 mi West 15.0 mph - N/A Rain Light Rain
1:30 AM 80.6 °F 86.2 °F 75.2 °F 84% 29.71 in 1.9 mi WSW 12.7 mph - N/A Rain Rain
2:00 AM 78.8 °F - 73.4 °F 83% 29.71 in 3.1 mi SW 9.2 mph - N/A Rain Rain
2:30 AM 78.8 °F - 73.4 °F 83% 29.71 in 3.1 mi WSW 8.1 mph - N/A Rain Light Rain
4:00 AM 82.4 °F 89.5 °F 75.2 °F 79% 29.68 in 4.3 mi WSW 9.2 mph - N/A   Mostly Cloudy
5:00 AM 80.6 °F 85.4 °F 73.4 °F 79% 29.68 in 4.3 mi WSW 11.5 mph - N/A   Mostly Cloudy
5:30 AM 82.4 °F 88.2 °F 73.4 °F 74% 29.68 in 4.3 mi WSW 8.1 mph - N/A   Mostly Cloudy
6:00 AM - - 73.4 °F N/A% 29.68 in 4.3 mi WSW 6.9 mph - N/A   Mostly Cloudy
6:30 AM 82.4 °F 88.2 °F 73.4 °F 74% 29.68 in 4.3 mi WSW 11.5 mph - N/A   Mostly Cloudy
7:00 AM 83 °F - 75 °F 72% 29.67 in 5 mi WSW 9.2 mph - -   Mist
7:00 AM 82.4 °F 88.2 °F 73.4 °F 74% 29.71 in 4.3 mi WSW 8.1 mph - N/A   Mostly Cloudy
7:30 AM 82.4 °F 89.5 °F 75.2 °F 79% 29.71 in 4.3 mi WSW 11.5 mph - N/A   Mostly Cloudy
8:00 AM 82.4 °F 89.5 °F 75.2 °F 79% 29.74 in 4.3 mi SW 6.9 mph - N/A   Overcast
9:30 AM 84.2 °F 92.3 °F 75.2 °F 74% 29.74 in 5.0 mi WSW 8.1 mph - N/A   Mostly Cloudy
10:00 AM 84.2 °F 92.3 °F 75.2 °F 74% 29.74 in 5.0 mi WSW 11.5 mph - N/A   Mostly Cloudy
10:30 AM 84.2 °F 92.3 °F 75.2 °F 74% 29.74 in 5.0 mi WSW 11.5 mph - N/A   Mostly Cloudy
11:00 AM 84.2 °F 92.3 °F 75.2 °F 74% 29.74 in 5.0 mi WSW 11.5 mph - N/A   Mostly Cloudy
11:30 AM 78.8 °F - 75.2 °F 89% 29.74 in 3.1 mi WSW 13.8 mph - N/A Rain Rain
12:00 PM 82.4 °F 89.5 °F 75.2 °F 79% 29.74 in 4.3 mi WSW 19.6 mph - N/A Rain Light Rain
12:30 PM 82.4 °F 89.5 °F 75.2 °F 79% 29.74 in 5.0 mi WSW 18.4 mph - N/A   Mostly Cloudy
1:00 PM 83 °F - 76 °F 73% 29.70 in 5 mi WNW 9.2 mph - -   Partly Cloudy
1:00 PM 82.4 °F 88.2 °F 73.4 °F 74% 29.74 in 5.0 mi West 17.3 mph - N/A   Mostly Cloudy
1:30 PM 80.6 °F 85.4 °F 73.4 °F 79% 29.74 in 5.0 mi WSW 15.0 mph - N/A   Mostly Cloudy
2:00 PM 80.6 °F 85.4 °F 73.4 °F 79% 29.71 in 5.0 mi WSW 17.3 mph - N/A   Mostly Cloudy
2:30 PM 78.8 °F - 73.4 °F 83% 29.71 in 4.3 mi WSW 15.0 mph - N/A Rain Rain
3:00 PM 80.6 °F 85.4 °F 73.4 °F 79% 29.68 in 4.3 mi WSW 15.0 mph - N/A   Mostly Cloudy
3:30 PM 82.4 °F 88.2 °F 73.4 °F 74% 29.68 in 5.0 mi WSW 11.5 mph - N/A   Mostly Cloudy
4:00 PM 82.4 °F 88.2 °F 73.4 °F 74% 29.68 in 5.0 mi West 13.8 mph - N/A   Mostly Cloudy
4:30 PM 82.4 °F 88.2 °F 73.4 °F 74% 29.68 in 5.0 mi WSW 13.8 mph - N/A   Mostly Cloudy
5:00 PM 82.4 °F 88.2 °F 73.4 °F 74% 29.68 in 5.6 mi WSW 17.3 mph - N/A   Mostly Cloudy
5:30 PM 82.4 °F 88.2 °F 73.4 °F 74% 29.68 in 6.2 mi West 11.5 mph - N/A   Mostly Cloudy
6:00 PM 82.4 °F 88.2 °F 73.4 °F 74% 29.68 in 6.2 mi WSW 15.0 mph - N/A   Mostly Cloudy
6:30 PM 84.2 °F 90.9 °F 73.4 °F 70% 29.68 in 6.2 mi West 15.0 mph - N/A   Mostly Cloudy
7:00 PM 85 °F - 74 °F 63% 29.67 in 6 mi WNW 11.5 mph - -   Scattered Clouds
7:00 PM 84.2 °F 89.6 °F 71.6 °F 66% 29.71 in 6.2 mi West 17.3 mph - N/A   Mostly Cloudy
7:30 PM 82.4 °F 88.2 °F 73.4 °F 74% 29.74 in 6.2 mi WSW 17.3 mph - N/A   Mostly Cloudy
8:00 PM 80.6 °F 86.2 °F 75.2 °F 84% 29.74 in 4.3 mi West 20.7 mph - N/A Rain Rain
8:30 PM 80.6 °F 85.4 °F 73.4 °F 79% 29.74 in 4.3 mi West 20.7 mph - N/A   Mostly Cloudy
9:00 PM 82.4 °F 89.5 °F 75.2 °F 79% 29.74 in 4.3 mi West 13.8 mph - N/A   Mostly Cloudy
9:30 PM 82.4 °F 88.2 °F 73.4 °F 74% 29.74 in 4.3 mi West 13.8 mph - N/A   Mostly Cloudy
10:00 PM 82.4 °F 88.2 °F 73.4 °F 74% 29.74 in 4.3 mi West 16.1 mph - N/A   Mostly Cloudy
10:30 PM 82.4 °F 88.2 °F 73.4 °F 74% 29.77 in 4.3 mi West 13.8 mph - N/A   Mostly Cloudy
11:00 PM 82.4 °F 88.2 °F 73.4 °F 74% 29.77 in 4.3 mi West 15.0 mph - N/A   Mostly Cloudy
11:30 PM 82.4 °F 87.2 °F 71.6 °F 70% 29.77 in 4.3 mi West 16.1 mph - N/A   Mostly Cloudy